TimeEST,TemperatureF,Dew PointF,Humidity,Sea Level PressureIn,VisibilityMPH,Wind Direction,Wind SpeedMPH,Gust SpeedMPH,PrecipitationIn,Events,Conditions,WindDirDegrees,DateUTC
12:15 AM,19.4,15.8,86,29.78,10.0,Calm,Calm,-,N/A,,Overcast,0,2013-02-23 05:15:00
12:35 AM,19.4,15.8,86,29.78,10.0,Calm,Calm,-,N/A,,Overcast,0,2013-02-23 05:35:00
12:55 AM,17.6,15.8,93,29.77,5.0,Calm,Calm,-,N/A,,Overcast,0,2013-02-23 05:55:00
1:15 AM,17.6,15.8,93,29.77,5.0,Calm,Calm,-,N/A,,Overcast,0,2013-02-23 06:15:00
1:35 AM,17.6,15.8,93,29.76,4.0,Calm,Calm,-,N/A,,Overcast,0,2013-02-23 06:35:00
1:55 AM,17.6,15.8,93,29.76,5.0,Calm,Calm,-,N/A,,Overcast,0,2013-02-23 06:55:00
2:15 AM,17.6,15.8,93,29.76,7.0,NW,3.5,-,N/A,,Overcast,310,2013-02-23 07:15:00
2:35 AM,17.6,15.8,93,29.76,5.0,NW,3.5,-,N/A,,Overcast,310,2013-02-23 07:35:00
2:55 AM,17.6,15.8,93,29.75,3.0,NW,3.5,-,N/A,,Overcast,310,2013-02-23 07:55:00
3:15 AM,19.4,15.8,86,29.75,5.0,NW,3.5,-,N/A,,Overcast,310,2013-02-23 08:15:00
3:35 AM,19.4,15.8,86,29.75,3.0,Calm,Calm,-,N/A,,Overcast,0,2013-02-23 08:35:00
3:55 AM,19.4,15.8,86,29.75,8.0,Calm,Calm,-,N/A,,Overcast,0,2013-02-23 08:55:00
4:15 AM,17.6,14.0,86,29.75,8.0,WNW,4.6,-,N/A,,Scattered Clouds,290,2013-02-23 09:15:00
4:35 AM,17.6,14.0,86,29.74,10.0,West,4.6,-,N/A,,Mostly Cloudy,280,2013-02-23 09:35:00
4:55 AM,17.6,14.0,86,29.74,10.0,West,3.5,-,N/A,,Overcast,280,2013-02-23 09:55:00
5:15 AM,17.6,15.8,93,29.74,6.0,West,3.5,-,N/A,,Overcast,280,2013-02-23 10:15:00
5:35 AM,17.6,14.0,86,29.74,7.0,West,3.5,-,N/A,,Overcast,280,2013-02-23 10:35:00
5:55 AM,17.6,14.0,86,29.74,6.0,Calm,Calm,-,N/A,,Overcast,0,2013-02-23 10:55:00
6:15 AM,15.8,12.2,86,29.74,9.0,Calm,Calm,-,N/A,,Overcast,0,2013-02-23 11:15:00
6:35 AM,15.8,12.2,86,29.74,10.0,Calm,Calm,-,N/A,,Overcast,0,2013-02-23 11:35:00
6:55 AM,15.8,12.2,86,29.74,9.0,Calm,Calm,-,N/A,,Mostly Cloudy,0,2013-02-23 11:55:00
7:15 AM,15.8,12.2,86,29.74,9.0,Calm,Calm,-,N/A,,Overcast,0,2013-02-23 12:15:00
7:35 AM,15.8,12.2,86,29.75,8.0,Calm,Calm,-,N/A,,Overcast,0,2013-02-23 12:35:00
7:55 AM,15.8,12.2,86,29.75,6.0,Calm,Calm,-,N/A,,Overcast,0,2013-02-23 12:55:00
8:15 AM,15.8,12.2,86,29.76,5.0,Calm,Calm,-,N/A,,Overcast,0,2013-02-23 13:15:00
8:35 AM,15.8,12.2,86,29.75,7.0,Calm,Calm,-,N/A,,Overcast,0,2013-02-23 13:35:00
8:55 AM,17.6,15.8,93,29.75,6.0,SW,4.6,-,N/A,,Overcast,220,2013-02-23 13:55:00
9:15 AM,19.4,15.8,86,29.75,5.0,SW,6.9,-,N/A,,Overcast,230,2013-02-23 14:15:00
9:35 AM,19.4,17.6,93,29.75,10.0,WSW,6.9,-,N/A,,Mostly Cloudy,250,2013-02-23 14:35:00
9:55 AM,21.2,17.6,86,29.75,10.0,West,8.1,-,N/A,,Mostly Cloudy,260,2013-02-23 14:55:00
10:15 AM,21.2,17.6,86,29.75,10.0,West,8.1,-,N/A,,Overcast,260,2013-02-23 15:15:00
10:35 AM,23.0,17.6,80,29.75,10.0,WNW,5.8,-,N/A,,Mostly Cloudy,290,2013-02-23 15:35:00
10:55 AM,24.8,17.6,74,29.76,10.0,WNW,3.5,-,N/A,,Clear,290,2013-02-23 15:55:00
11:15 AM,24.8,17.6,74,29.76,10.0,WSW,3.5,-,N/A,,Clear,250,2013-02-23 16:15:00
11:35 AM,26.6,19.4,74,29.77,10.0,WSW,3.5,-,N/A,,Clear,240,2013-02-23 16:35:00
11:55 AM,26.6,19.4,74,29.77,10.0,SW,3.5,-,N/A,,Scattered Clouds,230,2013-02-23 16:55:00
12:15 PM,28.4,19.4,69,29.76,10.0,SSW,10.4,-,N/A,,Mostly Cloudy,210,2013-02-23 17:15:00
12:35 PM,28.4,19.4,69,29.77,10.0,SSW,9.2,-,N/A,,Overcast,200,2013-02-23 17:35:00
12:55 PM,26.6,21.2,80,29.76,10.0,SSW,9.2,-,N/A,,Overcast,200,2013-02-23 17:55:00
1:15 PM,28.4,21.2,74,29.76,10.0,SSW,5.8,-,N/A,,Overcast,210,2013-02-23 18:15:00
1:35 PM,28.4,19.4,69,29.76,10.0,WSW,8.1,-,N/A,,Overcast,240,2013-02-23 18:35:00
1:55 PM,28.4,19.4,69,29.76,10.0,WSW,9.2,-,N/A,,Overcast,250,2013-02-23 18:55:00
2:15 PM,28.4,19.4,69,29.76,10.0,WSW,10.4,-,N/A,,Overcast,250,2013-02-23 19:15:00
2:35 PM,28.4,17.6,64,29.76,10.0,West,9.2,-,N/A,,Overcast,260,2013-02-23 19:35:00
2:55 PM,28.4,19.4,69,29.76,10.0,West,10.4,-,N/A,,Overcast,260,2013-02-23 19:55:00
3:15 PM,28.4,19.4,69,29.77,10.0,West,9.2,-,N/A,,Overcast,260,2013-02-23 20:15:00
3:35 PM,28.4,19.4,69,29.77,10.0,West,8.1,-,N/A,,Overcast,280,2013-02-23 20:35:00
3:55 PM,28.4,19.4,69,29.77,10.0,West,6.9,-,N/A,,Overcast,260,2013-02-23 20:55:00
4:15 PM,28.4,19.4,69,29.77,10.0,Calm,Calm,-,N/A,,Overcast,0,2013-02-23 21:15:00
4:35 PM,28.4,19.4,69,29.77,10.0,Calm,Calm,-,N/A,,Overcast,0,2013-02-23 21:35:00
4:55 PM,28.4,19.4,69,29.77,10.0,WSW,4.6,-,N/A,,Overcast,250,2013-02-23 21:55:00
5:15 PM,28.4,19.4,69,29.77,10.0,SW,3.5,-,N/A,,Overcast,220,2013-02-23 22:15:00
5:35 PM,28.4,19.4,69,29.78,10.0,SSW,3.5,-,N/A,,Overcast,210,2013-02-23 22:35:00
5:55 PM,30.2,19.4,64,29.78,10.0,SSW,3.5,-,N/A,,Overcast,210,2013-02-23 22:55:00
6:15 PM,30.2,19.4,64,29.79,10.0,SSW,3.5,-,N/A,,Overcast,200,2013-02-23 23:15:00
6:35 PM,28.4,19.4,69,29.79,10.0,South,4.6,-,N/A,,Overcast,190,2013-02-23 23:35:00
6:55 PM,28.4,21.2,74,29.80,10.0,South,4.6,-,N/A,,Overcast,190,2013-02-23 23:55:00
7:15 PM,28.4,21.2,74,29.80,10.0,SSW,4.6,-,N/A,,Overcast,200,2013-02-24 00:15:00
7:55 PM,28.4,21.2,74,29.81,9.0,SSW,4.6,-,N/A,,Overcast,210,2013-02-24 00:55:00
8:15 PM,28.4,21.2,74,29.81,6.0,Calm,Calm,-,N/A,,Overcast,0,2013-02-24 01:15:00
8:35 PM,26.6,23.0,86,29.82,4.0,Calm,Calm,-,N/A,,Overcast,0,2013-02-24 01:35:00
8:55 PM,26.6,23.0,86,29.82,3.0,Calm,Calm,-,N/A,,Overcast,0,2013-02-24 01:55:00
9:15 PM,26.6,23.0,86,29.82,3.0,Calm,Calm,-,N/A,,Overcast,0,2013-02-24 02:15:00
9:35 PM,26.6,24.8,93,29.82,8.0,WSW,4.6,-,N/A,,Overcast,250,2013-02-24 02:35:00
9:55 PM,26.6,24.8,93,29.82,10.0,Calm,Calm,-,N/A,,Overcast,0,2013-02-24 02:55:00
10:15 PM,28.4,24.8,86,29.82,9.0,West,5.8,-,N/A,,Overcast,280,2013-02-24 03:15:00
10:35 PM,28.4,24.8,86,29.82,10.0,WNW,4.6,-,N/A,,Overcast,290,2013-02-24 03:35:00
10:55 PM,28.4,24.8,86,29.82,10.0,NW,4.6,-,N/A,,Overcast,310,2013-02-24 03:55:00
11:35 PM,28.4,24.8,86,29.83,10.0,NW,5.8,-,N/A,,Overcast,310,2013-02-24 04:35:00
11:55 PM,28.4,24.8,86,29.83,10.0,WNW,4.6,-,N/A,,Overcast,300,2013-02-24 04:55:00